Other Public Products
Issued by NWS Grand Forks, ND

Home | Current Version | Previous Version | Graphics & Text | Print | Product List | Glossary On
Versions: 1 2 3 4 5 6 7 8 9 10 11 12 13 14 15 16 17 18 19 20 21 22 23 24 25 26 27 28 29 30 31 32 33 34 35 36 37 38 39 40 41 42 43 44 45 46 47 48 49 50
000
FPUS83 KFGF 250331
OPUFGF
NATIONAL WEATHER SERVICE EASTERN NORTH DAKOTA/GRAND FORKS ND
1000 PM CDT SUN MAY 24 2015

 **SATELLITE DATA USED TO AUGMENT SKY COVER AT AUTOMATED STATIONS**
 *****  WEATHER ACROSS EASTERN NORTH DAKOTA  *****

CITY           SKY/WX    TMP DP  RH WIND       PRES   REMARKS
GRAND FORKS    CLOUDY    63  53  70 CALM      29.88F
GRAND FORKS AF CLOUDY    62  51  65 CALM      29.89F
GRAND CITY NWS   N/A     61 N/A N/A SE1         N/A
BUXTON           N/A     67  53  61 E2          N/A
DEVILS LAKE    CLOUDY    63  48  59 E5        29.90S
FARGO          CLOUDY    65  54  67 SE6       29.87F
WAHPETON ARPT  CLOUDY    59  54  82 NE5       29.87F
$$

 *****  WEATHER ACROSS CENTRAL AND WESTERN NORTH DAKOTA  *****

CITY           SKY/WX    TMP DP  RH WIND       PRES   REMARKS
JAMESTOWN      CLOUDY    58  54  86 NW5       29.88F
BISMARCK       CLOUDY    62  53  72 E14       29.90R
MINOT          MOCLDY    60  45  57 NE5       29.90S
MINOT AFB      MOCLDY    62  44  52 E3        29.90R
GARRISON         N/A     63  49  60 NE3       29.90S
WILLISTON      PTCLDY    64  44  48 SE5       29.91S
DICKINSON      CLOUDY    57  48  72 NE6       29.90S
HETTINGER      CLOUDY    57  49  74 NE10      29.91R
$$

 *****  OTHER OBSERVATIONS NORTHEAST NORTH DAKOTA  *****

CITY           SKY/WX    TMP DP  RH WIND       PRES   REMARKS
WALHALLA         N/A     59  50  72 CALM      29.90S
LANGDON        FAIR      59  43  55 SE5       29.92S
CAVALIER       FAIR      63  52  67 CALM      29.89S HAZE
GRAFTON        FAIR      64  52  63 SE6       29.89S
CANDO          FAIR      63  50  63 CALM      29.92S
FORT TOTTEN      N/A     64  47  54 E2        29.95
ROLLA          FAIR      59  45  58 CALM      29.94S
RUGBY          NOT AVBL
 ***** THE ABOVE OBSERVATIONS ARE NON NWS ARE NOT QUALITY
        CONTROLLED AND MAY MIS-REPORT RAIN FOR SNOW...
$$

 *****  OTHER OBSERVATIONS SOUTHEAST NORTH DAKOTA *****

CITY           SKY/WX    TMP DP  RH WIND       PRES   REMARKS
COOPERSTOWN    NOT AVBL
VALLEY CITY    CLOUDY    63  55  77 E3        29.88S
OAKES            N/A     57  57 100 NE7       29.87R
GWINNER        NOT AVBL
BUFFALO        NOT AVBL
WYNDMERE         N/A     59  57  94 E7          N/A
 ***** THE ABOVE OBSERVATIONS ARE NON NWS ARE NOT QUALITY
       CONTROLLED AND MAY MIS-REPORT RAIN FOR SNOW...
$$

  *****  WEATHER ACROSS NORTHERN MINNESOTA  *****

CITY           SKY/WX    TMP DP  RH WIND       PRES   REMARKS
FLAG ISLAND    MOCLDY    63  54  72 CALM      29.90R
WARROAD        CLOUDY    61  54  77 CALM      29.91S
ROSEAU         CLOUDY    64  52  63 CALM      29.91S
HALLOCK        CLOUDY    68  46  45 S3        29.89S
THF RVR FALLS  CLOUDY    64  48  55 CALM      29.90F
HALSTAD          N/A     62  48  60 E6          N/A
FOSSTON        CLOUDY    57  45  62 CALM      29.90F
BAUDETTE       CLOUDY    62  52  69 CALM      29.91R
WASKISH        CLOUDY    59  55  88 CALM      29.91S
CROOKSTON      CLOUDY    66  48  52 SE3       29.88F
$$
  *****  WEATHER ACROSS CENTRAL AND WEST MINNESOTA  *****

CITY           SKY/WX    TMP DP  RH WIND       PRES   REMARKS
BEMIDJI        CLOUDY    61  50  65 CALM      29.91S
PARK RAPIDS    CLOUDY    63  50  62 E6        29.90F
WADENA         DRIZZLE   57  54  88 NE3       29.88F
DETROIT LAKES  CLOUDY    61  54  77 SE5       29.90F
MOORHEAD       CLOUDY    64  55  72 SE6       29.88F
FERGUS FALLS   DRIZZLE   59  55  88 E8        29.88F
ELBOW LAKE     DRIZZLE   57  56  96 NE7       29.86S
MORRIS MN      LGT RAIN  59  57  94 E10       29.83F
STAPLES        DRIZZLE   57  55  94 NE3       29.88F
WHEATON        RAIN      55  55 100 NE9       29.87F
$$
  *****  WEATHER ELSEWHERE ACROSS MINNESOTA  *****

CITY           SKY/WX    TMP DP  RH WIND       PRES   REMARKS
DULUTH         LGT RAIN  59  55  87 E5        29.93F
INTRNTL FALLS  CLOUDY    60  49  66 CALM      29.90S
ELY            CLOUDY    59  48  67 CALM      29.93S
CLOQUET        CLOUDY    57  55  94 E5        29.92F
BRAINERD       LGT RAIN  58  56  93 E6        29.89F
HIBBING        CLOUDY    60  50  69 CALM      29.93S
ALEXANDRIA     CLOUDY    58  56  93 NE10      29.87F
SAINT CLOUD    LGT RAIN  58  57  97 E6        29.84F FOG
MINNEAPOLIS    LGT RAIN  59  57  93 E13       29.82F FOG
$$

  *****  WEATHER ACROSS SOUTH DAKOTA  *****

CITY           SKY/WX    TMP DP  RH WIND       PRES   REMARKS
SIOUX FALLS    CLOUDY    60  58  92 NE6       29.77S
BROOKINGS      CLOUDY    57  55  94 NE7       29.79F
WATERTOWN      LGT RAIN  57  55  93 NE12      29.81F
HURON          CLOUDY    59  57  93 NE6       29.80S
SISSETON         N/A     58  58 100 E12       29.84F
ABERDEEN       LGT RAIN  58  56  93 E8        29.84S
MITCHELL       CLOUDY    61  59  93 NE6       29.79S
PIERRE         CLOUDY    58  56  93 NE6       29.81S
MOBRIDGE       LGT RAIN  59  58  96 NE7       29.84R
RAPID CITY     CLOUDY    54  53  97 N12       29.86F
$$

  *****  SOME WEATHER IN NEARBY STATES *****

CITY           SKY/WX    TMP DP  RH WIND       PRES   REMARKS
GLASGOW MT     MOCLDY    64  41  42 SE7       29.90S
GREAT FALLS MT CLEAR     56  45  66 S6        29.96F
CHEYENNE WY    CLOUDY    47  39  74 NW3       29.88S
SCOTTSBLUFF NE CLOUDY    54  50  86 CALM      29.83R
OMAHA NE       CLOUDY    68  61  78 SW5       29.77R
DES MOINES IA  CLOUDY    68  63  84 SW8       29.79R
DAVENPORT IA   CLOUDY    69  65  86 S12       29.85R
CHICAGO IL     MOCLDY    64  61  90 SE7       29.92S
EAU CLAIRE WI  CLOUDY    58  55  90 E10       29.86F
LA CROSSE WI   CLOUDY    61  57  87 SE5       29.84F
$$

  *****  SOME NATIONAL WEATHER *****

CITY           SKY/WX    TMP DP  RH WIND       PRES   REMARKS
LA GUARDIA NY  CLOUDY    70  49  47 S12       30.26S
RALEIGH NC     PTCLDY    70  56  61 S7        30.33R
ATLANTA GA     MOCLDY    75  57  53 SE9       30.24R
NEW ORLEANS LA TSTM      74  67  78 SE20G36   30.05R
OKLAHOMA CITY  PTCLDY    64  62  93 E14       29.87R
ALBUQUERQUE NM CLOUDY    53  44  71 SE15      29.96
SALT LAKE CITY MOCLDY    62  42  47 NW9       29.89R
LOS ANGELES CA CLEAR     61  53  75 W8        29.96R
BOISE ID       CLEAR     73  40  30 NW8       29.81R
SEATTLE WA     CLOUDY    57  48  72 W5        30.03S
$$

*** WEATHER ACROSS MANITOBA...SASKATCHEWAN AND ONTARIO ***
                ***ONTARIO***

CITY           SKY/WX    TMP DP  RH WIND       PRES   REMARKS
GERALDTON      MOCLDY    59  43  55 SW5       29.94R
THUNDER BAY    MOCLDY    61  45  55 NE5       29.92S
SIOUX LOOKOUT  MOCLDY    54  45  71 CALM      29.91R
TORONTO        LGT RAIN  72  45  37 SW9       30.15R
BIG TROUT LK   CLEAR     48  36  61 NE5       29.95R
PICKLE LAKE    NOT AVBL
DRYDEN         PTCLDY    70  43  37 VRB2      29.91R
KENORA         PTCLDY    68  46  45 CALM      29.92R
$$
                *** MANITOBA***

CITY           SKY/WX    TMP DP  RH WIND       PRES   REMARKS
BRANDON        PTCLDY    68  43  40 SE5       29.91S
DAUPHIN        CLEAR     68  43  40 S6        29.87S
ISLAND LAKE    PTCLDY    61  34  36 VRB2      29.88F
PILOT MOUND      N/A     63  41  45 S6          N/A
THE PAS        PTCLDY    64  43  45 SE6       29.89S
THOMPSON       PTCLDY    55  36  47 NE6       29.91R
WINNIPEG       MOCLDY    64  46  52 NE7       29.89S
LYNN LAKE      CLEAR     57  37  47 E10       29.91R
CHURCHILL      PTCLDY    30  25  80 NE6       30.04F WCI  24
GILLAM         PTCLDY    45  30  57 E6        29.98R
$$
                ***SASKATCHEWAN***

CITY           SKY/WX    TMP DP  RH WIND       PRES   REMARKS
ESTEVAN        CLOUDY    63  45  51 E3        29.91S
KINDERSLEY     MOCLDY    70  28  21 SE6       29.93S
LLOYDMINSTER   MOCLDY    63  39  42 E6        29.93S
PRINCE ALBERT  PTCLDY    66  43  42 CALM      29.88S
REGINA         PTCLDY    68  36  30 S3        29.91S
YORKTON        CLEAR     70  43  37 W6        29.89S


USA.gov is the U.S. government's official web portal to all federal, state and local government web resources and services.